Погода Жигалово

Погода Жигалово : погода сейчас, прогноз погоды и архив. Всё, что Вы хотите узнать о погоде Жигалово!

Хотите узнать прогноз погоды Жигалово? Тогда Вам сюда: Погода Жигалово

Поиск расширенной информации на нашем сайте:

Другие новости

Новости СМИ2

Главная страница сайта

Новости сайта

03.07.2017

Напоминаем, что на нашем специализированном сайте Метеоцентр.Азия вы можете получить высокодетализированные автоматические прогнозы погоды по пунктам России, СНГ и мира в авиационном формате (включающие направление и скорость ветра, видимость, явления погоды, количество и форму облачности, нижнюю и верхнюю границу облачности).


Погода Жигалово - сегодня

Время (UTC), дата Ветер
(°,м/с) 
Видим.   Явления Облачность Т
(°С)
Тd
(°С)
f(%) Тe
(°С)
Pmin
(гПа)
dP
(гПа)
Po
(мм)
O2
(г/м3)
Тmin Tmax R s Состояние
почвы
06 16.01.18 050 (СВ) 20000 м  {снег}  10/0 средняя, верхняя 
[Ac trans|Ci fib]
-22 -25.7 72 -25  1018.1  -2.2  722  318           
09 16.01.18 090 (В) 20000 м  слаб. снег  10/0 средняя 
[Ac As]
-21.1 -24.5 74 -21  1016.5  -1.3  721  316           
12 16.01.18 300 (СЗ) н/о  {снег}  10/0 средняя, верхняя 
[Ac trans|Cs]
-25.7 -28.9 75 -26  1016.8  -0.7  720  322    -20.2  0.3     
15 16.01.18 тихо ()   н/о  слаб. снег  10/0 средняя 
[As op]
-24.9 -28.2 74 -25  1016.3  -0.4  720  321           
18 16.01.18 тихо ()   н/о  слаб. снег  10/0 средняя 
[As op]
-25.8 -29.2 73 -26  1016  -0.5  719  322           
21 16.01.18 110 (В) н/о  слаб. снег  10/0 средняя 
[As op]
-25.6 -29.1 73 -26  1016.1  0.2  719  322           
00 17.01.18 тихо ()   н/о  слаб. снег  10/0 средняя 
[As op]
-25.4 -28.8 73 -25  1016.3  0.2  720  321  -26.8    0.6  40  равномерный
сухой снег
100% 
03 17.01.18 тихо ()   20000 м  {снег}  10/3 600 м кучево-дожд., средняя, верхняя 
[Cb cap|Ac trans|Ci fib]
-25.7 -29.3 72 -26  1015.9  -0.4  719  322           
06 17.01.18 080 (В) 10 км  слаб. ливневой снег  10/5 600 м кучево-дожд., средняя 
[Cb cap|Ac und]
-21.8 -25.9 69 -25  1013.3  -1.6  718  316           
09 17.01.18 тихо ()   10 км  слаб. ливневой снег  10/5 600 м кучево-дожд., средняя 
[Cb cap|Ac und]
-21 -24.3 75 -21  1011.4  -1.6  717  315           
12 17.01.18 140 (ЮВ) н/о  слаб. ливневой снег  10/5 600 м кучево-дожд., верхняя 
[Cb cap|Ci fib]
-21.5 -24.8 75 -22  1010.9  -0.6  716  315    -20.3  0.5     
15 17.01.18 тихо ()   н/о  слаб. ливневой снег  10/10 600 м кучево-дожд. 
[Cb cap]
-20.5 -23.7 76 -21  1009.4  -1.2  716  313           
18 17.01.18 тихо ()   н/о  {ливн. осадки}  10/6 600 м кучево-дожд., верхняя 
[Cb cap|Ci fib]
-22.2 -25.3 76 -22  1009.4  -0.4  715  315           
21 17.01.18 тихо ()   н/о    6/3 600 м кучево-дожд., верхняя 
[Cb cap|Ci fib]
-24.9 -27.8 77 -25  1009.5  -0.5  715  319           
00 18.01.18 тихо ()   н/о  слаб. ливневой снег  10/10 600 м кучево-дожд. 
[Cb cap]
-22.7 -25.8 76 -23  1008.7  -0.2  715  316  -25.9    41  равномерный
сухой снег
100% 
03 18.01.18 270 (З) 10-18{18}  10 км  слаб. ливневой снег  10/10 600 м кучево-дожд. 
[Cb cap]
-14.3 -19.1 67 -23  1008.4  1.4  716  306           
06 18.01.18 300 (СЗ) 7-10{20}  10 км  слаб. ливневой снег  8/8 600 м кучево-дожд. 
[Cb cap]
-21.5 -28.9 51 -30  1019  8.5  722  318           
09 18.01.18 290 (З) 6{16}  10 км  {ливн. осадки}  9/9 600 м кучево-дожд. 
[Cb cap]
-23.2 -30.4 52 -31  1024.1  4.5  726  321           
12 18.01.18 300 (СЗ) 6{12}  н/о  {ливн. осадки}  10/8 600 м кучево-дожд., верхняя 
[Cb cap|Ci fib]
-24.9 -32.5 49 -33  1029.1  4.3  729  325    -13.8  0.6     
15 18.01.18 300 (СЗ) н/о    10/8 600 м кучево-дожд., верхняя 
[Cb cap|Ci fib]
-27.3 -35.4 46 -35  1033.4  3.5  731  329           
18 18.01.18 280 (З) н/о    ясно 
-31.1 -37.5 53 -32  1036.6  2.2  733  335           
21 18.01.18 тихо ()   н/о    ясно 
-36.6 -40.9 64 -37  1039.3  1.2  734  344           
00 19.01.18 тихо ()   н/о    ясно 
-40.7 -45.8 58 -41  1041.7  1.2  735  350  -40.7      39  равномерный
сухой снег
100% 
03 19.01.18 тихо ()   0500 м  туман  ясно 
-38.7 -43.6 60 -39  1041.3  0.2  735  347           
06 19.01.18 тихо ()   20000 м  {туман}  ясно 
-32.3 -38.2 56 -32  1039.2  -0.5  735  338           
Время (UTC), дата Ветер
(°,м/с) 
Видим.   Явления Облачность Т
(°С)
Тd
(°С)
f(%) Тe
(°С)
Pmin
(гПа)
dP
(гПа)
Po
(мм)
O2
(г/м3)
Тmin Tmax R s Состояние
почвы

Для получения пояснительной информации подведите курсор к названию столбца.

ПОГОДА Жигалово - архив

Всё, что Вы хотите узнать о погоде Жигалово - удобно и подробно!

Выберите нужную дату (начиная с 1 января 2015* года) и нажмите кнопку "Найти".
Будут отображены архивные сводки погоды по пункту Жигалово, начиная с указанной даты.


Отображать данные в формате CSV (для использования в таблицах Excel)


Внимание! Наш архив погоды предназначен исключительно для личного некоммерческого использования в познавательных целях. Если Вам необходимы официальные справки о состоянии погоды (для производственных, юридических, коммерческих и т.п. целей), обращайтесь в органы Росгидромета.

*Примечание: данная дата относится к архиву по метеостанциям СССР (Россия, СНГ, Балтия).
Архив по метеостанциям Зарубежной Европы и Азии (кроме Китая) хранится 10 дней, по другим регионам земного шара (Китай, Африка, Америка, Австралия, Океания) - 1 день.

Жигалово - район местоположения метеостанции


Название, широта, долгота, высота метеостанции:
Жигалово 54.8°ш. 105.2°д. 426 м над ур. моря [Российская Федерация]

Дополнительная информация

В oтличие oт бoльшинства пoгoдных сайтoв мы публикуем пoдрoбную метеoинфoрмацию в детальнoм прoфессиoнальнoм фoрмате.

Характеристики температуры и влажнoсти вoздуха измеряются на высoте 2 м в тени вдали oт зданий и деревьев.
Скoрoсть ветра измеряется на высoте 10 м (на урoвне рoста челoвека скoрoсть ветра ниже в 1.5-2 раза). Если метеoстанция нахoдится в гoрoде или в лесу, тo скoрoсть ветра занижена на 2-4 м/с пo сравнению с oткрытым местoм. Скoрoсть ветра над акватoриями крупных рек и oзёр, а также на вершинах хoлмoв на 2-5 м/с выше, чем в oбычных услoвиях.
Атмoсфернoе давление в разных тoчках местнoсти мoжет значительнo oтличаться oт давления на метеoстанции, в зависимoсти oт услoвий рельефа (при пoдъёме на 10 м давление пoнижается примернo на 1 мм рт.ст.).